FW3284 Weather Reports


time (UTC)temp
C
wind
direction
speed
KPH
gust
KPH
rain 1hr
cm
rain 24hr
cm
rain mn
cm
humidity
%
barometer
mb
20260509194519 26 293 0.0 0.0 0.00 0.03 0.03 38 1009.9
20260509193051 26 224 0.0 0.0 0.00 0.03 0.03 35 1009.9
20260509191533 26 255 0.0 9.7 0.00 0.03 0.03 35 1009.9
20260509190014 26 234 1.6 11.3 0.00 0.03 0.03 33 1009.9
20260509184551 25 280 0.0 0.0 0.00 0.03 0.03 40 1010.0
20260509183036 25 302 0.0 4.8 0.00 0.03 0.03 39 1009.9
20260509181511 25 266 6.4 17.7 0.00 0.03 0.03 40 1010.1
20260509180052 25 300 9.7 19.3 0.00 0.03 0.03 37 1010.0
20260509174545 24 304 12.9 20.9 0.00 0.03 0.03 42 1010.1
20260509173018 24 286 4.8 12.9 0.00 0.03 0.03 41 1010.4
20260509171554 24 303 0.0 9.7 0.00 0.03 0.03 42 1010.4
20260509170032 23 252 4.8 16.1 0.00 0.03 0.03 41 1010.4
20260509164509 23 324 9.7 19.3 0.00 0.03 0.03 44 1010.5
20260509163049 23 264 6.4 9.7 0.00 0.03 0.03 48 1010.6
20260509161541 23 257 6.4 11.3 0.00 0.03 0.03 45 1010.6
20260509160007 22 307 0.0 0.0 0.00 0.03 0.03 53 1010.6
20260509154539 22 326 1.6 9.7 0.00 0.03 0.03 56 1010.5
20260509153029 22 238 0.0 6.4 0.00 0.03 0.03 54 1010.5
20260509151558 21 261 0.0 8.0 0.00 0.03 0.03 59 1010.6
20260509150039 20 244 0.0 4.8 0.00 0.03 0.03 63 1010.5
20260509144511 20 276 0.0 0.0 0.00 0.03 0.03 70 1010.5
20260509143055 19 256 0.0 6.4 0.00 0.03 0.03 73 1010.4
20260509141525 18 253 0.0 0.0 0.00 0.03 0.03 78 1010.3
20260509140006 17 190 1.6 6.4 0.00 0.03 0.03 79 1010.4
20260509134539 17 209 0.0 8.0 0.00 0.03 0.03 84 1010.4
20260509133023 16 207 3.2 8.0 0.00 0.03 0.03 85 1010.1
20260509131559 16 243 0.0 0.0 0.00 0.03 0.03 86 1010.1
20260509131501 16 243 0.0 0.0 0.00 0.03 0.03 87 1010.1
20260509130039 16 171 0.0 0.0 0.00 0.03 0.03 88 1010.1
20260509124516 15 225 0.0 0.0 0.00 0.03 0.03 90 1010.0
20260509123103 14 184 0.0 4.8 0.00 0.03 0.03 92 1010.0
20260509121529 13 252 0.0 6.4 0.03 0.03 0.03 92 1010.0
20260509120003 13 238 3.2 9.7 0.03 0.03 0.03 93 1009.8
20260509114543 12 235 0.0 9.7 0.03 0.03 0.03 94 1009.6
20260509113018 12 229 0.0 4.8 0.03 0.03 0.03 94 1009.5
20260509111555 12 205 0.0 0.0 0.00 0.00 0.00 94 1009.5
20260509110038 12 238 1.6 8.0 0.00 0.00 0.00 94 1009.4
20260509104521 12 213 0.0 0.0 0.00 0.00 0.00 94 1009.2
20260509103104 12 212 0.0 0.0 0.00 0.00 0.00 93 1009.2
20260509103007 12 212 0.0 0.0 0.00 0.00 0.00 93 1009.2
20260509101541 12 220 0.0 0.0 0.00 0.00 0.00 92 1009.2
20260509100023 12 220 0.0 0.0 0.00 0.00 0.00 92 1009.0
20260509094600 12 220 0.0 0.0 0.00 0.00 0.00 91 1009.2
20260509094500 12 220 0.0 0.0 0.00 0.00 0.00 91 1009.2
20260509093046 12 220 0.0 0.0 0.00 0.00 0.00 91 1009.4
20260509091525 13 220 0.0 0.0 0.00 0.00 0.00 90 1009.4
20260509090008 13 212 0.0 6.4 0.00 0.00 0.00 92 1009.3
20260509084548 12 167 0.0 4.8 0.00 0.00 0.00 92 1009.1
20260509083031 13 206 0.0 8.0 0.00 0.00 0.00 92 1009.1
20260509081513 13 213 0.0 0.0 0.00 0.00 0.00 93 1009.2
20260509080047 12 233 0.0 3.2 0.00 0.00 0.00 93 1009.2
20260509074527 12 245 0.0 0.0 0.00 0.00 0.00 93 1009.1
20260509073005 12 222 0.0 0.0 0.00 0.00 0.00 92 1009.0
20260509071552 13 212 3.2 9.7 0.00 0.00 0.00 92 1009.0
20260509070021 13 229 0.0 6.4 0.00 0.00 0.00 92 1009.0
20260509064503 12 229 0.0 8.0 0.00 0.00 0.00 93 1009.0
20260509063043 12 227 4.8 9.7 0.00 0.00 0.00 94 1009.2
20260509061516 12 243 0.0 0.0 0.00 0.00 0.00 94 1009.2
20260509054548 12 264 0.0 0.0 0.00 0.00 0.00 94 1009.5
20260509053017 12 264 0.0 0.0 0.00 0.00 0.00 93 1009.5
20260509051547 12 264 0.0 0.0 0.00 0.00 0.00 93 1009.4
20260509050045 13 306 0.0 0.0 0.00 0.00 0.00 92 1009.4
20260509044558 13 23 0.0 0.0 0.00 0.00 0.00 92 1009.1
20260509044503 13 23 0.0 0.0 0.00 0.00 0.00 92 1009.1
20260509043052 13 23 0.0 0.0 0.00 0.00 0.00 91 1009.1
20260509041527 14 212 0.0 8.0 0.00 0.00 0.00 90 1009.0
20260509040058 14 192 1.6 4.8 0.00 0.00 0.00 90 1009.0
20260509034539 15 212 0.0 4.8 0.00 0.00 0.00 89 1009.1
20260509033021 15 181 0.0 0.0 0.00 0.00 0.00 88 1009.0
20260509031623 15 102 0.0 1.6 0.00 0.00 0.00 88 1008.9
20260509031509 15 102 0.0 1.6 0.00 0.00 0.00 88 1008.9
20260509030041 15 33 0.0 3.2 0.00 0.00 0.00 89 1009.2
20260509024535 15 1 0.0 8.0 0.00 0.00 0.00 87 1009.5
20260509023017 16 359 0.0 19.3 0.00 0.00 0.00 86 1008.9
20260509021543 16 316 0.0 0.0 0.00 0.00 0.00 78 1008.4
20260509020023 18 291 0.0 0.0 0.00 0.00 0.00 63 1007.2
20260509014506 18 143 0.0 0.0 0.00 0.00 0.00 61 1006.4
20260509013048 18 143 0.0 0.0 0.00 0.00 0.00 60 1006.2
20260509011525 18 143 0.0 0.0 0.00 0.00 0.00 58 1005.9
20260509010013 19 148 0.0 0.0 0.00 0.00 0.00 57 1006.1
20260509004553 19 150 0.0 8.0 0.00 0.00 0.00 56 1006.3
20260509003031 20 124 0.0 6.4 0.00 0.00 0.00 56 1006.0
20260509001515 20 215 4.8 14.5 0.00 0.00 0.00 53 1006.5
20260509000103 21 222 0.0 4.8 0.00 0.00 0.00 51 1006.5
20260508234531 21 179 0.0 6.4 0.00 0.00 0.00 50 1006.4
20260508233007 22 138 0.0 11.3 0.00 0.00 0.00 51 1006.9
20260508231553 22 234 0.0 1.6 0.00 0.00 0.00 50 1007.2
20260508230037 22 241 0.0 9.7 0.00 0.00 0.00 49 1007.8
20260508224517 22 257 3.2 17.7 0.00 0.00 0.00 45 1008.2
20260508223059 22 233 1.6 8.0 0.00 0.00 0.00 45 1008.1
20260508223009 22 233 0.0 8.0 0.00 0.00 0.00 45 1008.1
20260508221541 22 227 0.0 4.8 0.00 0.00 0.00 43 1008.1
20260508220037 23 217 3.2 16.1 0.00 0.00 0.00 39 1007.8
20260508214515 25 131 0.0 11.3 0.00 0.00 0.00 39 1007.3
20260508213116 25 212 4.8 14.5 0.00 0.00 0.00 37 1007.1
20260508213005 25 206 8.0 14.5 0.00 0.00 0.00 37 1007.0
20260508211539 25 191 3.2 9.7 0.00 0.00 0.00 40 1007.2
20260508210011 25 194 3.2 16.1 0.00 0.00 0.00 41 1007.6
20260508204602 25 175 3.2 12.9 0.00 0.00 0.00 41 1007.8
20260508203035 25 126 1.6 14.5 0.00 0.00 0.00 44 1008.0
20260508201511 25 190 4.8 11.3 0.00 0.00 0.00 44 1008.4
20260508200059 25 217 1.6 14.5 0.00 0.00 0.00 44 1008.8